Azure — ZCEE2 — position and weather

sailwx.info

Track history (hours):
 
Tides and Currents Weather Stations Pressure Air Temp Water Temp Dewpoint Dewpoint Depression Visibility Wind Speed Wind Dir Waves Ship Positions

Azure

Last reported at 2017-Sep-26 03:30 UTC. Time now 2017-Sep-26 04:01 UTC.
Position N 37°56' E 023°38'.

Length 289 m; draft 8.6 m.

Type: Passenger vessel. MMSI: 310610000.

Date/timePositionNaut miles runAvg speedWind from/ knotsBaromVisibWave heightAir tempDewpointWater temp
2017-Sep-26 03:30N 37°56' E 023°38'2 3.8
2017-Sep-26 03:00N 37°55' E 023°37'510.8
2017-Sep-26 02:30N 37°50' E 023°40'611.7
2017-Sep-26 02:00N 37°44' E 023°43'612.1
2017-Sep-26 01:30N 37°39' E 023°46'612.1
2017-Sep-26 01:00N 37°33' E 023°48'612.2
2017-Sep-26 00:29N 37°27' E 023°49'106 4.5
2017-Sep-25 01:00N 36°00' E 025°06'11 0.5 210 / 81015.810.8 22.513.026.0
2017-Sep-24 01:00N 35°54' E 024°54'66 2.8 020 / 111019.310.8 22.013.426.0
2017-Sep-23 01:00N 36°48' E 024°06'36818.4 050 / 71018.210.8 23.012.625.0
2017-Sep-22 05:00N 36°18' E 016°30'7719.3 340 / 71019.710.8 22.510.826.0
2017-Sep-22 01:00N 36°18' E 014°54'711.8 1019.810.8 21.015.125.0
2017-Sep-22 00:24N 36°25' E 014°51'820.2
2017-Sep-22 00:00N 36°25' E 014°41'1020.1
2017-Sep-21 23:30N 36°29' E 014°29'1020.7
2017-Sep-21 23:00N 36°32' E 014°17'1020.8
2017-Sep-21 22:30N 36°35' E 014°05'1020.9
2017-Sep-21 22:00N 36°39' E 013°52'1320.9
2017-Sep-21 21:21N 36°43' E 013°36'720.8
2017-Sep-21 21:00N 36°45' E 013°28'2520.7
2017-Sep-21 19:47N 36°52' E 012°57'920.2
2017-Sep-21 19:19N 36°54' E 012°46'1120.0
2017-Sep-21 18:45N 36°59' E 012°33'26220.5
2017-Sep-21 06:00N 38°00' E 007°12'7819.4 100 / 81019.310.8 21.011.125.0
2017-Sep-21 02:00N 38°18' E 005°36'9117.5 130 / 81019.610.8 22.013.425.0
2017-Sep-20 20:47N 38°35' E 003°42'1119.0
2017-Sep-20 20:11N 38°37' E 003°27'319.1
2017-Sep-20 20:00N 38°38' E 003°23'2176876.5
2017-Sep-20 20:00N 38°30' E 003°48'3162.5 150 / 131020.210.8 22.514.025.0
2017-Sep-20 19:30N 38°40' E 003°11'1019.3
2017-Sep-20 19:00N 38°42' E 002°59'1019.4
2017-Sep-20 18:30N 38°43' E 002°47'1019.3
2017-Sep-20 18:00N 38°45' E 002°34'919.3
2017-Sep-20 17:31N 38°47' E 002°22'1019.2
2017-Sep-20 17:00N 38°49' E 002°10'1019.2
2017-Sep-20 16:30N 38°51' E 001°58'1019.1
2017-Sep-20 16:00N 38°52' E 001°46'919.0
2017-Sep-20 15:30N 38°53' E 001°34'610.6
2017-Sep-20 14:59N 38°54' E 001°27'0 0.2
2017-Sep-20 14:00N 38°54' E 001°27'0 0.0
2017-Sep-20 13:30N 38°54' E 001°27'0 0.0
2017-Sep-20 13:00N 38°54' E 001°27'0 0.0
2017-Sep-20 12:30N 38°54' E 001°27'0 0.0
2017-Sep-20 12:00N 38°54' E 001°27'0 0.0
2017-Sep-20 11:30N 38°54' E 001°27'0 0.0
2017-Sep-20 11:00N 38°54' E 001°27'0 0.0
2017-Sep-20 10:30N 38°54' E 001°27'0 0.0
2017-Sep-20 10:00N 38°54' E 001°27'0 0.0
2017-Sep-20 09:30N 38°54' E 001°27'0 0.0
2017-Sep-20 09:00N 38°54' E 001°27'0 0.0
2017-Sep-20 08:30N 38°54' E 001°27'0 0.0
2017-Sep-20 08:00N 38°54' E 001°27'0 0.0
2017-Sep-20 07:30N 38°54' E 001°27'0 0.0
2017-Sep-20 07:00N 38°54' E 001°27'0 0.0
2017-Sep-20 06:28N 38°54' E 001°27'2 3.7
2017-Sep-20 06:00N 38°53' E 001°27'917.2
2017-Sep-20 05:31N 38°46' E 001°34'1017.8
2017-Sep-20 04:57N 38°37' E 001°39'6923.4
2017-Sep-20 02:00N 37°54' E 000°30'2613.7 090 / 61020.127.0 23.018.325.0
2017-Sep-20 00:05N 37°39' E 000°02'419.4
2017-Sep-19 23:53N 37°37' W 000°02'719.3
2017-Sep-19 23:30N 37°32' W 000°09'919.1
2017-Sep-19 23:00N 37°27' W 000°19'919.1
2017-Sep-19 22:30N 37°21' W 000°28'1018.9
2017-Sep-19 21:59N 37°16' W 000°38'919.0
2017-Sep-19 21:30N 37°11' W 000°48'5 9.2
2017-Sep-19 21:00N 37°06' W 000°48'2825.8 280 / 41020.410.8 23.518.025.0
2017-Sep-19 19:55N 36°53' W 001°19'818.8
2017-Sep-19 19:30N 36°48' W 001°26'18719.9
2017-Sep-19 10:06N 36°01' W 005°11'221.5
2017-Sep-19 10:00N 36°01' W 005°13'1121.1
2017-Sep-19 09:31N 35°57' W 005°26'14619.4
2017-Sep-19 02:00N 36°18' W 008°24'6917.6 340 / 191021.810.8 18.014.618.0
2017-Sep-18 22:05N 36°56' W 009°35'219.4
2017-Sep-18 21:59N 36°58' W 009°36'1719.4
2017-Sep-18 21:06N 37°15' W 009°40'15144.6
2017-Sep-18 21:00N 37°00' W 009°36'19164.2 330 / 151024.810.8 18.516.020.0
2017-Sep-18 20:52N 37°19' W 009°41'719.6
2017-Sep-18 20:30N 37°26' W 009°43'1019.6
2017-Sep-18 20:01N 37°36' W 009°45'251516.6
2017-Sep-18 20:00N 38°00' W 009°54'1530.0 350 / 131024.210.8 21.515.720.0
2017-Sep-18 19:29N 37°46' W 009°48'918.8
2017-Sep-18 19:00N 37°55' W 009°51'919.0
2017-Sep-18 18:30N 38°03' W 009°55'919.0
2017-Sep-18 18:01N 38°12' W 009°58'1019.5
2017-Sep-18 17:30N 38°22' W 010°02'1019.6
2017-Sep-18 17:01N 38°32' W 010°03'1019.6
2017-Sep-18 16:30N 38°41' W 010°05'1019.8
2017-Sep-18 16:00N 38°51' W 010°06'1019.4
2017-Sep-18 15:31N 39°01' W 010°05'1019.6
2017-Sep-18 15:00N 39°11' W 010°04'4232.2
2017-Sep-18 15:00N 39°12' W 010°00'918.5 1023.710.8 22.017.218.0
2017-Sep-18 14:31N 39°20' W 010°05'1019.1
2017-Sep-18 14:00N 39°30' W 010°05'1019.1
2017-Sep-18 13:30N 39°39' W 010°04'1019.1
2017-Sep-18 13:00N 39°49' W 010°04'19719.7
2017-Sep-18 03:00N 43°06' W 010°06'36519.2 290 / 221017.510.8 18.014.618.0
2017-Sep-17 08:00N 48°18' W 005°36'1542.8 330 / 161013.510.8 12.5 8.515.0
2017-Sep-17 07:38N 48°05' W 005°49'2019.7
2017-Sep-17 06:39N 48°22' W 005°34'319.7
2017-Sep-17 06:29N 48°25' W 005°31'1019.9
2017-Sep-17 06:00N 48°33' W 005°23'918.6
2017-Sep-17 05:30N 48°39' W 005°13'1019.3
2017-Sep-17 05:00N 48°46' W 005°03'1119.6
2017-Sep-17 04:28N 48°53' W 004°51'3221.6
2017-Sep-17 03:00N 49°12' W 004°12'3516.0 1010.410.8 11.5 8.516.0
2017-Sep-17 00:47N 49°37' W 003°34'518.9
2017-Sep-17 00:30N 49°41' W 003°28'1019.5
2017-Sep-17 00:00N 49°47' W 003°16'1020.2
2017-Sep-16 23:30N 49°54' W 003°05'1020.5
2017-Sep-16 23:00N 49°59' W 002°51'1121.1
2017-Sep-16 22:30N 50°02' W 002°35'3220.9
2017-Sep-16 20:58N 50°17' W 001°51'2319.6
2017-Sep-16 19:47N 50°27' W 001°18'518.7
2017-Sep-16 19:30N 50°29' W 001°11'918.2
2017-Sep-16 19:00N 50°35' W 000°60'714.5
2017-Sep-16 18:30N 50°42' W 000°58'612.7
2017-Sep-16 18:00N 50°45' W 001°07'714.0
2017-Sep-16 17:30N 50°47' W 001°18'4 8.9
2017-Sep-16 17:00N 50°51' W 001°20'4 8.6
2017-Sep-16 16:31N 50°54' W 001°25'0 0.9
2017-Sep-16 15:58N 50°54' W 001°26'0 0.0
2017-Sep-16 15:28N 50°54' W 001°26'0 0.0
2017-Sep-16 14:58N 50°54' W 001°26'0 0.0
2017-Sep-16 14:28N 50°54' W 001°26'0 0.0
2017-Sep-16 13:58N 50°54' W 001°26'0 0.0
2017-Sep-16 13:28N 50°54' W 001°26'0 0.0
2017-Sep-16 12:58N 50°54' W 001°26'0 0.0
2017-Sep-16 12:28N 50°54' W 001°26'0 0.0
2017-Sep-16 11:58N 50°54' W 001°26'0 0.0
2017-Sep-16 11:28N 50°54' W 001°26'0 0.0
2017-Sep-16 10:58N 50°54' W 001°26'0 0.0
2017-Sep-16 10:25N 50°54' W 001°26'0 0.0
2017-Sep-16 09:49N 50°54' W 001°26'0 0.0
2017-Sep-16 09:25N 50°54' W 001°26'0 0.0
2017-Sep-16 08:55N 50°54' W 001°26'0 0.0
2017-Sep-16 08:25N 50°54' W 001°26'0 0.0
2017-Sep-16 07:55N 50°54' W 001°26'0 0.0
2017-Sep-16 07:28N 50°54' W 001°26'0 0.0
2017-Sep-16 06:55N 50°54' W 001°26'0 0.0
2017-Sep-16 06:28N 50°54' W 001°26'0 0.0
2017-Sep-16 05:58N 50°54' W 001°26'0 0.0
2017-Sep-16 05:29N 50°54' W 001°26'0 0.5
2017-Sep-16 05:00N 50°54' W 001°26'3 6.6
2017-Sep-16 04:30N 50°52' W 001°22'5 9.9
2017-Sep-16 04:00N 50°48' W 001°18'612.3
2017-Sep-16 03:30N 50°46' W 001°09'  
Track history (hours):
 
Tides and Currents Weather Stations Pressure Air Temp Water Temp Dewpoint Dewpoint Depression Visibility Wind Speed Wind Dir Waves Ship Positions

Azure

Last reported at 2017-Sep-26 03:30 UTC. Time now 2017-Sep-26 04:01 UTC.
Position N 37°56' E 023°38'.

Length 289 m; draft 8.6 m.

Type: Passenger vessel. MMSI: 310610000.

Date/timePositionNaut miles runAvg speedWind from/ knotsBaromVisibWave heightAir tempDewpointWater temp
2017-Sep-26 03:30N 37°56' E 023°38'2 3.8
2017-Sep-26 03:00N 37°55' E 023°37'510.8
2017-Sep-26 02:30N 37°50' E 023°40'611.7
2017-Sep-26 02:00N 37°44' E 023°43'612.1
2017-Sep-26 01:30N 37°39' E 023°46'612.1
2017-Sep-26 01:00N 37°33' E 023°48'612.2
2017-Sep-26 00:29N 37°27' E 023°49'106 4.5
2017-Sep-25 01:00N 36°00' E 025°06'11 0.5 210 / 81015.810.8 22.513.026.0
2017-Sep-24 01:00N 35°54' E 024°54'66 2.8 020 / 111019.310.8 22.013.426.0
2017-Sep-23 01:00N 36°48' E 024°06'36818.4 050 / 71018.210.8 23.012.625.0
2017-Sep-22 05:00N 36°18' E 016°30'7719.3 340 / 71019.710.8 22.510.826.0
2017-Sep-22 01:00N 36°18' E 014°54'711.8 1019.810.8 21.015.125.0
2017-Sep-22 00:24N 36°25' E 014°51'820.2
2017-Sep-22 00:00N 36°25' E 014°41'1020.1
2017-Sep-21 23:30N 36°29' E 014°29'1020.7
2017-Sep-21 23:00N 36°32' E 014°17'1020.8
2017-Sep-21 22:30N 36°35' E 014°05'1020.9
2017-Sep-21 22:00N 36°39' E 013°52'1320.9
2017-Sep-21 21:21N 36°43' E 013°36'720.8
2017-Sep-21 21:00N 36°45' E 013°28'2520.7
2017-Sep-21 19:47N 36°52' E 012°57'920.2
2017-Sep-21 19:19N 36°54' E 012°46'1120.0
2017-Sep-21 18:45N 36°59' E 012°33'26220.5
2017-Sep-21 06:00N 38°00' E 007°12'7819.4 100 / 81019.310.8 21.011.125.0
2017-Sep-21 02:00N 38°18' E 005°36'9117.5 130 / 81019.610.8 22.013.425.0
2017-Sep-20 20:47N 38°35' E 003°42'1119.0
2017-Sep-20 20:11N 38°37' E 003°27'319.1
2017-Sep-20 20:00N 38°38' E 003°23'2176876.5
2017-Sep-20 20:00N 38°30' E 003°48'3162.5 150 / 131020.210.8 22.514.025.0
2017-Sep-20 19:30N 38°40' E 003°11'1019.3
2017-Sep-20 19:00N 38°42' E 002°59'1019.4
2017-Sep-20 18:30N 38°43' E 002°47'1019.3
2017-Sep-20 18:00N 38°45' E 002°34'919.3
2017-Sep-20 17:31N 38°47' E 002°22'1019.2
2017-Sep-20 17:00N 38°49' E 002°10'1019.2
2017-Sep-20 16:30N 38°51' E 001°58'1019.1
2017-Sep-20 16:00N 38°52' E 001°46'919.0
2017-Sep-20 15:30N 38°53' E 001°34'610.6
2017-Sep-20 14:59N 38°54' E 001°27'0 0.2
2017-Sep-20 14:00N 38°54' E 001°27'0 0.0
2017-Sep-20 13:30N 38°54' E 001°27'0 0.0
2017-Sep-20 13:00N 38°54' E 001°27'0 0.0
2017-Sep-20 12:30N 38°54' E 001°27'0 0.0
2017-Sep-20 12:00N 38°54' E 001°27'0 0.0
2017-Sep-20 11:30N 38°54' E 001°27'0 0.0
2017-Sep-20 11:00N 38°54' E 001°27'0 0.0
2017-Sep-20 10:30N 38°54' E 001°27'0 0.0
2017-Sep-20 10:00N 38°54' E 001°27'0 0.0
2017-Sep-20 09:30N 38°54' E 001°27'0 0.0
2017-Sep-20 09:00N 38°54' E 001°27'0 0.0
2017-Sep-20 08:30N 38°54' E 001°27'0 0.0
2017-Sep-20 08:00N 38°54' E 001°27'0 0.0
2017-Sep-20 07:30N 38°54' E 001°27'0 0.0
2017-Sep-20 07:00N 38°54' E 001°27'0 0.0
2017-Sep-20 06:28N 38°54' E 001°27'2 3.7
2017-Sep-20 06:00N 38°53' E 001°27'917.2
2017-Sep-20 05:31N 38°46' E 001°34'1017.8
2017-Sep-20 04:57N 38°37' E 001°39'6923.4
2017-Sep-20 02:00N 37°54' E 000°30'2613.7 090 / 61020.127.0 23.018.325.0
2017-Sep-20 00:05N 37°39' E 000°02'419.4
2017-Sep-19 23:53N 37°37' W 000°02'719.3
2017-Sep-19 23:30N 37°32' W 000°09'919.1
2017-Sep-19 23:00N 37°27' W 000°19'919.1
2017-Sep-19 22:30N 37°21' W 000°28'1018.9
2017-Sep-19 21:59N 37°16' W 000°38'919.0
2017-Sep-19 21:30N 37°11' W 000°48'5 9.2
2017-Sep-19 21:00N 37°06' W 000°48'2825.8 280 / 41020.410.8 23.518.025.0
2017-Sep-19 19:55N 36°53' W 001°19'818.8
2017-Sep-19 19:30N 36°48' W 001°26'18719.9
2017-Sep-19 10:06N 36°01' W 005°11'221.5
2017-Sep-19 10:00N 36°01' W 005°13'1121.1
2017-Sep-19 09:31N 35°57' W 005°26'14619.4
2017-Sep-19 02:00N 36°18' W 008°24'6917.6 340 / 191021.810.8 18.014.618.0
2017-Sep-18 22:05N 36°56' W 009°35'219.4
2017-Sep-18 21:59N 36°58' W 009°36'1719.4
2017-Sep-18 21:06N 37°15' W 009°40'15144.6
2017-Sep-18 21:00N 37°00' W 009°36'19164.2 330 / 151024.810.8 18.516.020.0
2017-Sep-18 20:52N 37°19' W 009°41'719.6
2017-Sep-18 20:30N 37°26' W 009°43'1019.6
2017-Sep-18 20:01N 37°36' W 009°45'251516.6
2017-Sep-18 20:00N 38°00' W 009°54'1530.0 350 / 131024.210.8 21.515.720.0
2017-Sep-18 19:29N 37°46' W 009°48'918.8
2017-Sep-18 19:00N 37°55' W 009°51'919.0
2017-Sep-18 18:30N 38°03' W 009°55'919.0
2017-Sep-18 18:01N 38°12' W 009°58'1019.5
2017-Sep-18 17:30N 38°22' W 010°02'1019.6
2017-Sep-18 17:01N 38°32' W 010°03'1019.6
2017-Sep-18 16:30N 38°41' W 010°05'1019.8
2017-Sep-18 16:00N 38°51' W 010°06'1019.4
2017-Sep-18 15:31N 39°01' W 010°05'1019.6
2017-Sep-18 15:00N 39°11' W 010°04'4232.2
2017-Sep-18 15:00N 39°12' W 010°00'918.5 1023.710.8 22.017.218.0
2017-Sep-18 14:31N 39°20' W 010°05'1019.1
2017-Sep-18 14:00N 39°30' W 010°05'1019.1
2017-Sep-18 13:30N 39°39' W 010°04'1019.1
2017-Sep-18 13:00N 39°49' W 010°04'19719.7
2017-Sep-18 03:00N 43°06' W 010°06'36519.2 290 / 221017.510.8 18.014.618.0
2017-Sep-17 08:00N 48°18' W 005°36'1542.8 330 / 161013.510.8 12.5 8.515.0
2017-Sep-17 07:38N 48°05' W 005°49'2019.7
2017-Sep-17 06:39N 48°22' W 005°34'319.7
2017-Sep-17 06:29N 48°25' W 005°31'1019.9
2017-Sep-17 06:00N 48°33' W 005°23'918.6
2017-Sep-17 05:30N 48°39' W 005°13'1019.3
2017-Sep-17 05:00N 48°46' W 005°03'1119.6
2017-Sep-17 04:28N 48°53' W 004°51'3221.6
2017-Sep-17 03:00N 49°12' W 004°12'3516.0 1010.410.8 11.5 8.516.0
2017-Sep-17 00:47N 49°37' W 003°34'518.9
2017-Sep-17 00:30N 49°41' W 003°28'1019.5
2017-Sep-17 00:00N 49°47' W 003°16'1020.2
2017-Sep-16 23:30N 49°54' W 003°05'1020.5
2017-Sep-16 23:00N 49°59' W 002°51'1121.1
2017-Sep-16 22:30N 50°02' W 002°35'3220.9
2017-Sep-16 20:58N 50°17' W 001°51'2319.6
2017-Sep-16 19:47N 50°27' W 001°18'518.7
2017-Sep-16 19:30N 50°29' W 001°11'918.2
2017-Sep-16 19:00N 50°35' W 000°60'714.5
2017-Sep-16 18:30N 50°42' W 000°58'612.7
2017-Sep-16 18:00N 50°45' W 001°07'714.0
2017-Sep-16 17:30N 50°47' W 001°18'4 8.9
2017-Sep-16 17:00N 50°51' W 001°20'4 8.6
2017-Sep-16 16:31N 50°54' W 001°25'0 0.9
2017-Sep-16 15:58N 50°54' W 001°26'0 0.0
2017-Sep-16 15:28N 50°54' W 001°26'0 0.0
2017-Sep-16 14:58N 50°54' W 001°26'0 0.0
2017-Sep-16 14:28N 50°54' W 001°26'0 0.0
2017-Sep-16 13:58N 50°54' W 001°26'0 0.0
2017-Sep-16 13:28N 50°54' W 001°26'0 0.0
2017-Sep-16 12:58N 50°54' W 001°26'0 0.0
2017-Sep-16 12:28N 50°54' W 001°26'0 0.0
2017-Sep-16 11:58N 50°54' W 001°26'0 0.0
2017-Sep-16 11:28N 50°54' W 001°26'0 0.0
2017-Sep-16 10:58N 50°54' W 001°26'0 0.0
2017-Sep-16 10:25N 50°54' W 001°26'0 0.0
2017-Sep-16 09:49N 50°54' W 001°26'0 0.0
2017-Sep-16 09:25N 50°54' W 001°26'0 0.0
2017-Sep-16 08:55N 50°54' W 001°26'0 0.0
2017-Sep-16 08:25N 50°54' W 001°26'0 0.0
2017-Sep-16 07:55N 50°54' W 001°26'0 0.0
2017-Sep-16 07:28N 50°54' W 001°26'0 0.0
2017-Sep-16 06:55N 50°54' W 001°26'0 0.0
2017-Sep-16 06:28N 50°54' W 001°26'0 0.0
2017-Sep-16 05:58N 50°54' W 001°26'0 0.0
2017-Sep-16 05:29N 50°54' W 001°26'0 0.5
2017-Sep-16 05:00N 50°54' W 001°26'3 6.6
2017-Sep-16 04:30N 50°52' W 001°22'5 9.9
2017-Sep-16 04:00N 50°48' W 001°18'612.3
2017-Sep-16 03:30N 50°46' W 001°09'  

Dump ship's entire track history